FENGYUN 1C DEB

Satellite information

Favourite Embed

Satellite Type and Status

DEBRISIN ORBIT

Key statistics

Satellite FENGYUN 1C DEB at a glance.

Uptime

9717

Days in orbit

Revolutions

≈ 13.7

Per day

Orbit

SSO

Sun Synchronous Orbit

Inclination

98.6

Latest

Satellite identification and parameters

Extended collection of information and parameters for FENGYUN 1C DEB.

Object identification

Identified? True

Debris? True

Object name: FENGYUN 1C DEB

International designator: 1999-025EKX

Object number (NORAD): 37682

Object ID (CCSDS): 37682

Country: PEOPLES REPUBLIC OF CHINA (PRC)

Current information (Y/N): Y

RCS size: SMALL

Orbital parameters

Period: 105.005 minutes

Inclination: 98.5771 deg

SMA: 7372.814 km

Apoapsis: 1164.95 km

Periapsis: 824.408 km

RAAN: 210.9311 deg

Eccentricy: 0.0230944

Argument of periapsis: 64.2235 deg

Mean anomaly: 298.255 deg

Mean motion: 13.71364306 rev/day

Mean motion (dot): 0.00001133 rev/day2

B* drag term: 0.0010768 1/REarth

Two-line elements (TLE)

Creation date: July 7, 2025, 5:18 a.m.

Reference frame: TEME

Reference center: EARTH

Epoch: July 6, 2025, 8:27 p.m. UTC

TLE line 0: 0 FENGYUN 1C DEB

TLE line 1: 1 37682U 99025EKX 25187.85275722 .00001133 00000-0 10768-2 0 9994

TLE line 2: 2 37682 98.5771 210.9311 0230944 64.2235 298.2550 13.71364306602559

Live tracking on map

Real-time ground track for satellite FENGYUN 1C DEB.

In-orbit conjunctions

A list of the most updated potential collisions computed for object FENGYUN 1C DEB.

Target Orbit TCA Probability of collision Miss distance Type
CZ-4C R/B LEO 2024-08-24 21:00:14 0.000129901 437.0 (m) ROCKET BODY

Associated space launch

Chinese polar orbiting meteorological satellite

FENGYUN 1C DEB was lifted into orbit during the mission ‘Long March 4B | Feng Yun 1C’, on board a Long March 4B space rocket.

The launch took place on May 10, 1999, 1:33 a.m. from Launch Complex 7.

For more information about the launch, click the button.

Launch to space Long March 4B | Feng Yun 1C
Long March 4B | Feng Yun 1C

Agency: N/A

Status: Launch Successful

Launch date: May 10, 1999, 1:33 a.m. UTC

Rocket: Long March 4B

Launch pad: Launch Complex 7

Location: Taiyuan Satellite Launch Center, People's Republic of China

...

Latest news about this satellite

There are no fresh news available about this satellite. Check back as we update our databases every day.


Newsletter sign-up

Weekly statistics, charts and insights to help you stay on top of the space industry.